Weather History for Michigan City, IN

Change the Weather History Date:

Monday, February 4, 2013

  Actual Average (KVPZ) Record (KVPZ)
Temperature  
Mean Temperature 24 °F 25 °F  
Max Temperature 28 °F 32 °F 46 °F (2008)
Min Temperature 21 °F 17 °F -8 °F (2007)
Degree Days  
Heating Degree Days 40 40  
Month to date heating degree days 162  
Since 1 July heating degree days 3847  
Cooling Degree Days 0 0  
Month to date cooling degree days 0  
Year to date cooling degree days 0  
Moisture  
Dew Point 21 °F    
Average Humidity 85    
Maximum Humidity 93    
Minimum Humidity 74    
Precipitation  
Precipitation 0.00 in 0.04 in 0.35 in (2012)
Month to date precipitation 0.17  
Year to date precipitation 1.92  
Sea Level Pressure  
Sea Level Pressure 29.91 in    
Wind  
Wind Speed 3 mph (East)    
Max Wind Speed 7 mph    
Max Gust Speed -    
Visibility 6 miles    
Events Snow    
T = Trace of Precipitation, MM = Missing Value Source: NWS Daily Summary

Daily Weather History Graph

Daily Weather History Graph

Search for Another Location

Airport:

Trip Planner

Search our weather history database for the weather conditions in past years. The results will help you decide how hot, cold, wet, or windy it might be!

Date:

Astronomy

Feb. 04, 2013 Rise Set
Actual Time 6:55 AM CST 5:07 PM CST
Civil Twilight 6:26 AM CST 5:36 PM CST
Nautical Twilight 5:53 AM CST 6:09 PM CST
Astronomical Twilight 5:21 AM CST 6:41 PM CST
Moon 1:32 AM CST (2/4) 11:29 AM CST (2/4)
Length of Visible Light 11h 09m
Length of Day
10h 11m
Last Quarter, 37% of the Moon is Illuminated
Feb 4
Last Quarter
Feb 10
New
Feb 17
First Quarter
Feb 25
Full
Mar 4
Last Quarter

Hourly Weather History & Observations

Time (CST) Temp. Windchill Dew Point Humidity Pressure Visibility Wind Dir Wind Speed Gust Speed Precip Events Conditions
12:15 AM 21.2 °F 14.9 °F 19.4 °F 93% 30.04 in 1.8 mi WSW 4.6 mph - N/A Snow Light Snow
12:35 AM 21.2 °F 14.9 °F 19.4 °F 93% 30.03 in 1.8 mi West 4.6 mph - N/A Snow Light Snow
12:55 AM 21.2 °F 12.6 °F 19.4 °F 93% 30.02 in 1.8 mi West 6.9 mph - N/A Snow Light Snow
1:15 AM 23.0 °F 15.8 °F 19.4 °F 86% 30.02 in 2.0 mi West 5.8 mph - N/A Snow Light Snow
1:35 AM 23.0 °F 18.4 °F 19.4 °F 86% 30.02 in 2.5 mi SW 3.5 mph - N/A Snow Light Snow
1:55 AM 23.0 °F 17.0 °F 21.2 °F 93% 30.02 in 2.0 mi SW 4.6 mph - N/A Snow Light Snow
2:15 AM 21.2 °F 16.4 °F 19.4 °F 93% 30.01 in 2.0 mi SSW 3.5 mph - N/A Snow Light Snow
2:35 AM 21.2 °F - 19.4 °F 93% 29.99 in 2.5 mi Calm Calm - N/A Snow Light Snow
2:55 AM 21.2 °F - 19.4 °F 93% 29.97 in 3.0 mi Calm Calm - N/A Snow Light Snow
3:15 AM 21.2 °F - 19.4 °F 93% 29.97 in 1.2 mi Calm Calm - N/A Snow Light Snow
4:55 AM 21.2 °F - 19.4 °F 93% 29.94 in 1.0 mi Calm Calm - N/A Snow Snow
5:15 AM 21.2 °F - 19.4 °F 93% 29.94 in 1.2 mi Calm Calm - N/A Snow Light Snow
5:35 AM 21.2 °F 16.4 °F 19.4 °F 93% 29.92 in 1.8 mi ESE 3.5 mph - N/A Snow Light Snow
5:55 AM 21.2 °F - 19.4 °F 93% 29.92 in 2.0 mi Calm Calm - N/A Snow Light Snow
6:15 AM 21.2 °F - 19.4 °F 93% 29.93 in 3.0 mi Calm Calm - N/A Snow Light Snow
6:35 AM 21.2 °F - 19.4 °F 93% 29.93 in 5.0 mi Calm Calm - N/A Snow Light Snow
6:55 AM 21.2 °F - 19.4 °F 93% 29.93 in 3.0 mi Calm Calm - N/A Snow Light Snow
7:15 AM 21.2 °F - 19.4 °F 93% 29.93 in 2.0 mi Calm Calm - N/A Snow Light Snow
7:35 AM 21.2 °F 16.4 °F 19.4 °F 93% 29.92 in 1.8 mi ENE 3.5 mph - N/A Snow Light Snow
8:15 AM 23.0 °F 17.0 °F 21.2 °F 93% 29.91 in 1.0 mi East 4.6 mph - N/A Snow Light Snow
8:35 AM 23.0 °F 17.0 °F 21.2 °F 93% 29.90 in 1.8 mi East 4.6 mph - N/A Snow Light Snow
8:55 AM 23.0 °F - 21.2 °F 93% 29.89 in 7.0 mi Calm Calm - N/A Snow Light Snow
9:15 AM 24.8 °F 19.1 °F 21.2 °F 86% 29.89 in 1.8 mi East 4.6 mph - N/A Snow Light Snow
9:55 AM 24.8 °F 19.1 °F 21.2 °F 86% 29.89 in 4.0 mi ESE 4.6 mph - N/A Snow Light Snow
10:15 AM 24.8 °F 19.1 °F 21.2 °F 86% 29.89 in 7.0 mi East 4.6 mph - N/A   Overcast
10:35 AM 24.8 °F 19.1 °F 21.2 °F 86% 29.88 in 10.0 mi ESE 4.6 mph - N/A   Overcast
10:55 AM 26.6 °F 22.6 °F 21.2 °F 80% 29.88 in 10.0 mi ESE 3.5 mph - N/A   Overcast
11:15 AM 26.6 °F 21.2 °F 21.2 °F 80% 29.87 in 10.0 mi ESE 4.6 mph - N/A   Overcast
11:35 AM 26.6 °F 21.2 °F 21.2 °F 80% 29.86 in 10.0 mi SE 4.6 mph - N/A   Overcast
11:55 AM 26.6 °F 21.2 °F 21.2 °F 80% 29.85 in 10.0 mi ESE 4.6 mph - N/A   Overcast
12:15 PM 26.6 °F 22.6 °F 21.2 °F 80% 29.86 in 10.0 mi East 3.5 mph - N/A   Overcast
12:35 PM 26.6 °F 22.6 °F 21.2 °F 80% 29.86 in 10.0 mi NE 3.5 mph - N/A   Overcast
12:55 PM 26.6 °F - 21.2 °F 80% 29.85 in 10.0 mi Calm Calm - N/A   Overcast
1:15 PM 26.6 °F 21.2 °F 21.2 °F 80% 29.85 in 10.0 mi NE 4.6 mph - N/A   Overcast
1:35 PM 26.6 °F 22.6 °F 21.2 °F 80% 29.84 in 10.0 mi NE 3.5 mph - N/A   Overcast
1:55 PM 26.6 °F 21.2 °F 21.2 °F 80% 29.85 in 10.0 mi NE 4.6 mph - N/A   Overcast
2:15 PM 26.6 °F 22.6 °F 21.2 °F 80% 29.86 in 10.0 mi NE 3.5 mph - N/A   Overcast
2:35 PM 28.4 °F - 21.2 °F 74% 29.86 in 10.0 mi Calm Calm - N/A   Overcast
2:55 PM 28.4 °F - 21.2 °F 74% 29.87 in 10.0 mi Calm Calm - N/A   Overcast
3:15 PM 28.4 °F 24.6 °F 21.2 °F 74% 29.87 in 10.0 mi East 3.5 mph - N/A   Overcast
3:35 PM 28.4 °F 24.6 °F 21.2 °F 74% 29.86 in 10.0 mi ENE 3.5 mph - N/A   Overcast
3:55 PM 28.4 °F - 21.2 °F 74% 29.85 in 10.0 mi Calm Calm - N/A   Overcast
4:15 PM 28.4 °F 24.6 °F 21.2 °F 74% 29.85 in 10.0 mi ENE 3.5 mph - N/A   Overcast
4:35 PM 26.6 °F 22.6 °F 21.2 °F 80% 29.85 in 10.0 mi ENE 3.5 mph - N/A   Overcast
4:55 PM 26.6 °F - 21.2 °F 80% 29.86 in 10.0 mi Calm Calm - N/A   Overcast
5:15 PM 26.6 °F - 21.2 °F 80% 29.88 in 10.0 mi Calm Calm - N/A   Overcast
5:35 PM 26.6 °F - 21.2 °F 80% 29.89 in 10.0 mi Calm Calm - N/A   Overcast
5:55 PM 26.6 °F - 21.2 °F 80% 29.89 in 10.0 mi Calm Calm - N/A   Overcast
6:15 PM 26.6 °F - 21.2 °F 80% 29.91 in 10.0 mi Calm Calm - N/A   Overcast
6:35 PM 26.6 °F - 21.2 °F 80% 29.91 in 10.0 mi Calm Calm - N/A   Overcast
6:55 PM 26.6 °F - 21.2 °F 80% 29.92 in 10.0 mi Calm Calm - N/A   Overcast
7:15 PM 26.6 °F - 21.2 °F 80% 29.92 in 10.0 mi Calm Calm - N/A   Overcast
7:35 PM 26.6 °F - 21.2 °F 80% 29.92 in 10.0 mi Calm Calm - N/A Snow Light Snow
7:55 PM 26.6 °F - 21.2 °F 80% 29.92 in 7.0 mi Calm Calm - N/A Snow Light Snow
8:15 PM 26.6 °F - 21.2 °F 80% 29.92 in 5.0 mi Calm Calm - N/A Snow Light Snow
8:35 PM 26.6 °F - 21.2 °F 80% 29.93 in 3.0 mi Calm Calm - N/A Snow Light Snow
8:55 PM 26.6 °F - 21.2 °F 80% 29.93 in 5.0 mi Calm Calm - N/A Snow Light Snow
9:15 PM 26.6 °F - 21.2 °F 80% 29.95 in 4.0 mi Calm Calm - N/A Snow Light Snow
9:35 PM 26.6 °F - 23.0 °F 86% 29.94 in 7.0 mi Calm Calm - N/A Snow Light Snow
9:55 PM 26.6 °F - 21.2 °F 80% 29.93 in 7.0 mi Calm Calm - N/A Snow Light Snow
10:15 PM 26.6 °F - 21.2 °F 80% 29.93 in 7.0 mi Calm Calm - N/A Snow Light Snow
10:35 PM 24.8 °F - 21.2 °F 86% 29.93 in 7.0 mi Calm Calm - N/A Snow Light Snow
10:55 PM 24.8 °F - 21.2 °F 86% 29.93 in 10.0 mi Calm Calm - N/A   Overcast
11:15 PM 23.0 °F - 21.2 °F 93% 29.93 in 10.0 mi Calm Calm - N/A   Overcast
11:35 PM 23.0 °F - 21.2 °F 93% 29.93 in 10.0 mi Calm Calm - N/A   Overcast
11:55 PM 23.0 °F - 21.2 °F 93% 29.93 in 5.0 mi Calm Calm - N/A Snow Light Snow